Time,TemperatureF,DewpointF,PressureIn,WindDirection,WindDirectionDegrees,WindSpeedMPH,WindSpeedGustMPH,Humidity,HourlyPrecipIn,Conditions,Clouds,dailyrainin,SolarRadiationWatts/m^2,SoftwareType,DateUTC
2013-01-16 00:12:00,27.0,23.0,-100.00,SE,135,4.0,5.0,85,-99.99,,,0.00,0.000000,,2013-01-16 08:12:00,
2013-01-16 01:11:00,26.0,22.0,-100.00,SE,143,7.0,8.0,85,-99.99,,,0.00,0.000000,,2013-01-16 09:11:00,
2013-01-16 02:12:00,25.0,21.0,-100.00,SSE,158,6.0,7.0,82,-99.99,,,0.00,0.000000,,2013-01-16 10:12:00,
2013-01-16 03:12:00,25.0,20.0,-100.00,SE,139,5.0,7.0,80,-99.99,,,0.00,0.000000,,2013-01-16 11:12:00,
2013-01-16 04:12:00,24.0,19.0,-100.00,SSE,149,4.0,6.0,78,-99.99,,,0.00,0.000000,,2013-01-16 12:12:00,
2013-01-16 05:12:00,24.0,19.0,-100.00,ESE,120,3.0,7.0,80,-99.99,,,0.00,0.000000,,2013-01-16 13:12:00,
2013-01-16 06:12:00,23.0,18.0,-100.00,SE,135,4.0,6.0,81,-99.99,,,0.00,0.000000,,2013-01-16 14:12:00,
2013-01-16 07:12:00,22.0,17.0,-100.00,SE,141,5.0,5.0,81,-99.99,,,0.00,0.000000,,2013-01-16 15:12:00,
2013-01-16 08:12:00,21.0,16.0,-100.00,SE,146,4.0,6.0,81,-99.99,,,0.00,0.120000,,2013-01-16 16:12:00,
2013-01-16 09:12:00,21.0,17.0,-100.00,SE,146,6.0,7.0,82,-99.99,,,0.00,54.619999,,2013-01-16 17:12:00,
2013-01-16 10:12:00,29.0,22.0,-100.00,SSE,157,4.0,6.0,73,-99.99,,,0.00,210.360001,,2013-01-16 18:12:00,
2013-01-16 12:12:00,37.0,22.0,-100.00,ESE,106,2.0,3.0,52,-99.99,,,0.00,418.859985,,2013-01-16 20:12:00,
2013-01-16 13:12:00,39.0,24.0,-100.00,East,80,3.0,5.0,54,-99.99,,,-99.99,448.489990,,2013-01-16 21:12:00,
2013-01-16 15:12:00,45.0,22.0,-100.00,NE,52,4.0,6.0,39,-99.99,,,0.00,345.059998,,2013-01-16 23:12:00,
2013-01-16 17:12:00,43.0,28.0,-100.00,NE,40,2.0,4.0,55,-99.99,,,0.00,78.800003,,2013-01-17 01:12:00,
2013-01-16 18:12:00,36.0,25.0,-100.00,East,80,2.0,3.0,64,-99.99,,,0.00,1.390000,,2013-01-17 02:12:00,
2013-01-16 19:12:00,35.0,25.0,-100.00,SSE,165,2.0,3.0,66,-99.99,,,0.00,0.120000,,2013-01-17 03:12:00,
2013-01-16 20:12:00,31.0,25.0,-100.00,SE,146,4.0,5.0,79,-99.99,,,0.00,0.120000,,2013-01-17 04:12:00,
2013-01-16 21:12:00,31.0,26.0,-100.00,SE,136,3.0,4.0,81,-99.99,,,0.00,0.120000,,2013-01-17 05:12:00,
2013-01-16 22:12:00,34.0,26.0,-100.00,SE,135,4.0,5.0,71,-99.99,,,0.00,0.120000,,2013-01-17 06:12:00,
2013-01-16 23:12:00,32.0,23.0,-100.00,ESE,120,3.0,4.0,71,-99.99,,,0.00,0.000000,,2013-01-17 07:12:00,